Home > Weather > Rohrbach > Past weeks

Flag for Austria Past Weather in Rohrbach, Upper Austria, Austria — Yesterday and Last 2 Weeks

Now
61 °F

Cool.


Feels Like: 61 °F
Forecast: 54 / 65 °F
Wind: 2 mph from West

Location: Rohrbach

Current Time: Jun 26, 2016 at 4:52:14 AM

Latest Report: Jun 26, 2016 at 4:00 AM


Visibility: N/A

Pressure: 30.00 "Hg (27.93 "Hg at 605m altitude)

Humidity: 93%

Dew Point: 59 °F

Location of RohrbachLocation

Past Weather in Rohrbach — Graph

°F

Rohrbach Temperature Yesterday

Maximum temperature yesterday: 88 °F (at 6:00 PM)
Minimum temperature yesterday: 60 °F (at 11:00 PM)
Average temperature yesterday: 74 °F

High & Low Weather Summary for the Past Weeks

 TemperatureHumidityPressure
High88 °F (Jun 25, 6:00 PM)99% (Jun 21, 4:00 AM)30.29 "Hg (Jun 21, 4:00 AM)
Low49 °F (Jun 18, 6:00 AM)30% (Jun 24, 5:00 PM)29.44 "Hg (Jun 16, 5:00 PM)
Average63 °F76%29.91 "Hg
* Reported Jun 11 3:00 AM — Jun 26 3:00 AM, Rohrbach, Weather by CustomWeather, © 2016

Note: Actual official high and low records may vary slightly from our data, if they occured in-between our weather recording intervals... More about our weather records

Advertising

Rohrbach Weather History for the Previous 24 Hours

Scroll right to see more
 ConditionsComfort  
Time TempWeatherWind HumidityBarometerVisibility
3:00 AM
Sun, Jun 26
61 °FCool.2 mph95%29.99 "HgN/A
2:00 AM61 °FCool.2 mph94%29.99 "HgN/A
1:00 AM61 °FCool.1 mph96%29.98 "HgN/A
12:00 AM61 °FSprinkles. Overcast.3 mph95%29.96 "HgN/A
11:00 PM
Sat, Jun 25
60 °FCool.5 mph95%29.95 "HgN/A
10:00 PM62 °FFog.5 mph97%29.97 "HgN/A
9:00 PM63 °FMild.6 mph94%29.92 "HgN/A
8:00 PM67 °FFog.2 mph84%29.85 "HgN/A
7:00 PM81 °FWarm.3 mph57%29.72 "HgN/A
6:00 PM88 °FWarm.1 mph44%29.70 "HgN/A
5:00 PM86 °FWarm.1 mph44%29.72 "HgN/A
4:00 PM85 °FWarm.2 mph47%29.74 "HgN/A
3:00 PM85 °FWarm.3 mph53%29.76 "HgN/A
2:00 PM84 °FWarm.2 mph53%29.78 "HgN/A
1:00 PM85 °FWarm.2 mph53%29.79 "HgN/A
12:00 PM82 °FWarm.2 mph59%29.82 "HgN/A
11:00 AM80 °FWarm.2 mph62%29.83 "HgN/A
10:00 AM78 °FWarm.1 mph69%29.84 "HgN/A
9:00 AM74 °FMild.No wind74%29.85 "HgN/A
8:00 AM71 °FMild.No wind79%29.85 "HgN/A
7:00 AM68 °FMild.1 mph81%29.87 "HgN/A
6:00 AM63 °FMild.1 mph89%29.90 "HgN/A
5:00 AM65 °FMild.No wind85%29.90 "HgN/A
4:00 AM65 °FMild.1 mph83%29.91 "HgN/A
Weather by CustomWeather, © 2016

See weather overviewHow to use our weather pages